SWR4WF LSZH-LKPR

Flight info

Callsign SWR4WF
Flight time 0h 50m
Altitude 41000
Route DEGES Z2 XEBIX N871 NENUM Z39 DOLUP DCT APRAQ
Aircraft A359/H-SDE2E3GHIJ3J4J5LM1ORWXY/LB1D1

Departure

Time 2026-05-06 16:40
Airport Zürich Airport (LSZH)

Arrival

Time 2026-05-06 17:31
Airport Václav Havel Airport Prague (LKPR)
Time Latitude Longitude Altitude Speed Heading
2026-05-06 16:16 47.45029 8.55856 1413 ft 0 kts
2026-05-06 16:28 47.45025 8.55855 1418 ft 3 kts
2026-05-06 16:28 47.44999 8.55849 1418 ft 4 kts 11°
2026-05-06 16:29 47.44975 8.55848 1415 ft 3 kts 334°
2026-05-06 16:29 47.44955 8.55867 1416 ft 4 kts 305°
2026-05-06 16:29 47.44946 8.55902 1414 ft 7 kts 277°
2026-05-06 16:29 47.44944 8.55918 1415 ft 8 kts 276°
2026-05-06 16:33 47.44945 8.55909 1416 ft 2 kts 275°
2026-05-06 16:33 47.44949 8.55842 1415 ft 10 kts 275°
2026-05-06 16:34 47.45014 8.55635 1415 ft 13 kts 334°
2026-05-06 16:34 47.45096 8.55579 1416 ft 14 kts 335°
2026-05-06 16:34 47.45187 8.55517 1411 ft 15 kts 335°
2026-05-06 16:34 47.45289 8.55446 1414 ft 17 kts 335°
2026-05-06 16:35 47.45378 8.55384 1414 ft 8 kts 335°
2026-05-06 16:35 47.45385 8.55380 1414 ft 1 kts 335°
2026-05-06 16:35 47.45414 8.55360 1413 ft 8 kts 335°
2026-05-06 16:35 47.45485 8.55312 1413 ft 13 kts 335°
2026-05-06 16:36 47.45580 8.55247 1412 ft 17 kts 335°
2026-05-06 16:36 47.45676 8.55236 1413 ft 13 kts 52°
2026-05-06 16:36 47.45674 8.55360 1413 ft 13 kts 97°
2026-05-06 16:36 47.45664 8.55502 1412 ft 15 kts 96°
2026-05-06 16:37 47.45653 8.55663 1413 ft 17 kts 96°
2026-05-06 16:37 47.45640 8.55844 1418 ft 19 kts 96°
2026-05-06 16:37 47.45627 8.56030 1418 ft 19 kts 96°
2026-05-06 16:37 47.45612 8.56237 1418 ft 21 kts 96°
2026-05-06 16:38 47.45597 8.56441 1422 ft 16 kts 96°
2026-05-06 16:38 47.45586 8.56605 1423 ft 14 kts 96°
2026-05-06 16:38 47.45575 8.56763 1428 ft 17 kts 96°
2026-05-06 16:38 47.45565 8.56892 1427 ft 12 kts 96°
2026-05-06 16:39 47.45587 8.57009 1429 ft 11 kts 30°
2026-05-06 16:39 47.45654 8.57009 1431 ft 8 kts 322°
2026-05-06 16:39 47.45668 8.56933 1430 ft 0 kts 276°
2026-05-06 16:39 47.45673 8.56860 1429 ft 34 kts 275°
2026-05-06 16:40 47.45733 8.56016 1423 ft 129 kts 276°
2026-05-06 16:40 47.45869 8.54381 1829 ft 175 kts 277°
2026-05-06 16:40 47.45987 8.52581 3065 ft 176 kts 271°
2026-05-06 16:40 47.45948 8.50700 3622 ft 192 kts 263°
2026-05-06 16:41 47.45691 8.48720 4298 ft 199 kts 255°
2026-05-06 16:41 47.45302 8.46756 5107 ft 201 kts 251°
2026-05-06 16:41 47.44810 8.44810 6034 ft 203 kts 247°
2026-05-06 16:41 47.44077 8.42916 6571 ft 226 kts 232°
2026-05-06 16:42 47.42783 8.41447 7103 ft 247 kts 204°
2026-05-06 16:42 47.41031 8.41265 7914 ft 265 kts 170°
2026-05-06 16:42 47.39407 8.42671 8871 ft 282 kts 137°
2026-05-06 16:42 47.38485 8.45270 9804 ft 298 kts 105°
2026-05-06 16:43 47.38342 8.48390 10474 ft 314 kts 96°
2026-05-06 16:43 47.38390 8.51705 10882 ft 338 kts 89°
2026-05-06 16:43 47.38592 8.56493 11722 ft 357 kts 88°
2026-05-06 16:44 47.38867 8.62652 13209 ft 365 kts 88°
2026-05-06 16:44 47.39033 8.66406 14051 ft 369 kts 88°
2026-05-06 16:44 47.39199 8.70210 14876 ft 373 kts 89°
2026-05-06 16:44 47.39365 8.74055 15667 ft 377 kts 89°
2026-05-06 16:45 47.39531 8.77938 16458 ft 380 kts 89°
2026-05-06 16:45 47.39696 8.81853 17308 ft 384 kts 90°
2026-05-06 16:45 47.39862 8.85802 18168 ft 387 kts 90°
2026-05-06 16:45 47.40027 8.89786 18908 ft 391 kts 90°
2026-05-06 16:46 47.40192 8.93822 19612 ft 396 kts 90°
2026-05-06 16:46 47.40361 8.97907 20334 ft 401 kts 91°
2026-05-06 16:46 47.40529 9.02047 21033 ft 406 kts 91°
2026-05-06 16:46 47.40699 9.06223 21744 ft 410 kts 91°
2026-05-06 16:47 47.40866 9.10448 22442 ft 415 kts 91°
2026-05-06 16:47 47.41034 9.14713 23153 ft 419 kts 91°
2026-05-06 16:47 47.41228 9.18998 23731 ft 426 kts 89°
2026-05-06 16:47 47.41506 9.21962 24047 ft 433 kts 85°
2026-05-06 16:48 47.42068 9.26371 24519 ft 441 kts 83°
2026-05-06 16:48 47.42964 9.32278 25262 ft 448 kts 81°
2026-05-06 16:48 47.43683 9.36769 25892 ft 451 kts 81°
2026-05-06 16:48 47.44408 9.41303 26400 ft 457 kts 81°
2026-05-06 16:49 47.45129 9.45903 26894 ft 462 kts 82°
2026-05-06 16:49 47.45844 9.50557 27383 ft 467 kts 82°
2026-05-06 16:49 47.46550 9.55254 27864 ft 471 kts 83°
2026-05-06 16:49 47.46996 9.60064 28348 ft 470 kts 92°
2026-05-06 16:50 47.46983 9.64890 28763 ft 471 kts 98°
2026-05-06 16:50 47.46808 9.69714 29078 ft 478 kts 100°
2026-05-06 16:50 47.46556 9.74630 29569 ft 481 kts 101°
2026-05-06 16:50 47.46365 9.77955 29904 ft 484 kts 101°
2026-05-06 16:51 47.45969 9.84565 30445 ft 489 kts 101°
2026-05-06 16:51 47.45669 9.89585 30833 ft 492 kts 101°
2026-05-06 16:51 47.45372 9.94627 31278 ft 494 kts 101°
2026-05-06 16:51 47.45077 9.99713 31706 ft 497 kts 101°
2026-05-06 16:52 47.44782 10.04817 32071 ft 500 kts 101°
2026-05-06 16:52 47.44484 10.09955 32393 ft 504 kts 101°
2026-05-06 16:52 47.44181 10.15139 32733 ft 507 kts 101°
2026-05-06 16:52 47.43685 10.20277 33106 ft 505 kts 106°
2026-05-06 16:53 47.43060 10.25379 33389 ft 507 kts 107°
2026-05-06 16:53 47.42402 10.30444 33725 ft 509 kts 107°
2026-05-06 16:53 47.41716 10.35564 33871 ft 503 kts 107°
2026-05-06 16:53 47.41058 10.40556 33851 ft 489 kts 106°
2026-05-06 16:54 47.40746 10.45523 33818 ft 488 kts 96°
2026-05-06 16:54 47.41005 10.50544 33842 ft 495 kts 84°
2026-05-06 16:54 47.41861 10.55509 33853 ft 501 kts 77°
2026-05-06 16:55 47.44131 10.65265 33838 ft 504 kts 73°
2026-05-06 16:55 47.46575 10.74974 33810 ft 504 kts 73°
2026-05-06 16:56 47.48998 10.84704 33815 ft 504 kts 73°
2026-05-06 16:56 47.50964 10.92797 33792 ft 503 kts 74°
2026-05-06 16:57 47.53705 11.04202 33807 ft 503 kts 74°
2026-05-06 16:57 47.55653 11.12327 33801 ft 504 kts 74°
2026-05-06 16:58 47.57987 11.22099 33805 ft 504 kts 74°
2026-05-06 16:58 47.60313 11.31870 33819 ft 503 kts 74°
2026-05-06 16:59 47.62618 11.41589 33809 ft 505 kts 74°
2026-05-06 16:59 47.64740 11.51562 33829 ft 508 kts 77°
2026-05-06 17:00 47.66723 11.61631 33823 ft 508 kts 77°
2026-05-06 17:00 47.68724 11.71691 33796 ft 508 kts 77°
2026-05-06 17:01 47.70745 11.81738 33805 ft 507 kts 77°
2026-05-06 17:01 47.73116 11.91623 33780 ft 514 kts 64°
2026-05-06 17:01 47.75070 11.96090 33785 ft 517 kts 51°
2026-05-06 17:02 47.77564 11.99934 33792 ft 517 kts 41°
2026-05-06 17:02 47.83013 12.06903 33759 ft 516 kts 38°
2026-05-06 17:03 47.88584 12.13638 33761 ft 515 kts 37°
2026-05-06 17:03 47.94129 12.20385 33766 ft 515 kts 38°
2026-05-06 17:04 47.99661 12.27186 33794 ft 515 kts 38°
2026-05-06 17:04 48.04725 12.33460 33727 ft 514 kts 38°
2026-05-06 17:05 48.10222 12.40292 33717 ft 514 kts 38°
2026-05-06 17:05 48.15715 12.47140 33707 ft 514 kts 38°
2026-05-06 17:06 48.21210 12.54035 33706 ft 514 kts 39°
2026-05-06 17:06 48.26741 12.60793 33692 ft 513 kts 35°
2026-05-06 17:07 48.32500 12.67126 33688 ft 512 kts 34°
2026-05-06 17:07 48.38266 12.73412 33693 ft 513 kts 34°
2026-05-06 17:08 48.43641 12.80420 33688 ft 512 kts 41°
2026-05-06 17:08 48.48863 12.87680 33688 ft 511 kts 42°
2026-05-06 17:09 48.54167 12.94669 33693 ft 510 kts 32°
2026-05-06 17:09 48.60143 13.00216 33692 ft 507 kts 28°
2026-05-06 17:10 48.66253 13.05478 33699 ft 505 kts 27°
2026-05-06 17:10 48.72371 13.10693 33702 ft 505 kts 27°
2026-05-06 17:11 48.78483 13.15948 33697 ft 505 kts 27°
2026-05-06 17:11 48.84579 13.21230 33720 ft 504 kts 27°
2026-05-06 17:12 48.90840 13.25974 33706 ft 503 kts 20°
2026-05-06 17:12 48.97276 13.30145 33709 ft 503 kts 19°
2026-05-06 17:13 49.03740 13.34241 33439 ft 511 kts 19°
2026-05-06 17:13 49.07099 13.36360 32865 ft 532 kts 20°
2026-05-06 17:13 49.10508 13.38666 32199 ft 538 kts 26°
2026-05-06 17:13 49.13584 13.41888 31553 ft 538 kts 39°
2026-05-06 17:14 49.16420 13.45584 30905 ft 534 kts 40°
2026-05-06 17:14 49.19204 13.49339 30296 ft 530 kts 41°
2026-05-06 17:14 49.21944 13.53061 29677 ft 526 kts 41°
2026-05-06 17:14 49.24633 13.56726 28980 ft 522 kts 41°
2026-05-06 17:15 49.27337 13.60417 28283 ft 518 kts 41°
2026-05-06 17:15 49.30016 13.64082 27608 ft 515 kts 41°
2026-05-06 17:15 49.32672 13.67720 26966 ft 511 kts 41°
2026-05-06 17:15 49.35313 13.71344 26311 ft 507 kts 42°
2026-05-06 17:16 49.37935 13.74947 25676 ft 503 kts 42°
2026-05-06 17:16 49.40525 13.78512 25057 ft 498 kts 42°
2026-05-06 17:16 49.43094 13.82052 24469 ft 494 kts 42°
2026-05-06 17:16 49.45642 13.85570 23889 ft 489 kts 42°
2026-05-06 17:17 49.48159 13.89049 23300 ft 485 kts 43°
2026-05-06 17:17 49.50654 13.92504 22598 ft 480 kts 43°
2026-05-06 17:17 49.53125 13.95929 21926 ft 475 kts 43°
2026-05-06 17:17 49.55485 13.99206 21310 ft 471 kts 43°
2026-05-06 17:18 49.57776 14.02391 20727 ft 466 kts 43°
2026-05-06 17:18 49.60137 14.05678 20081 ft 462 kts 43°
2026-05-06 17:18 49.62450 14.09075 19431 ft 457 kts 49°
2026-05-06 17:18 49.64300 14.13001 18992 ft 447 kts 62°
2026-05-06 17:19 49.65749 14.17115 18505 ft 426 kts 64°
2026-05-06 17:19 49.67101 14.21143 17274 ft 423 kts 65°
2026-05-06 17:19 49.68458 14.25248 16314 ft 430 kts 65°
2026-05-06 17:19 49.69780 14.29279 15874 ft 421 kts 65°
2026-05-06 17:20 49.71089 14.33286 15340 ft 416 kts 65°
2026-05-06 17:20 49.72379 14.37261 14746 ft 411 kts 65°
2026-05-06 17:20 49.73651 14.41216 14077 ft 410 kts 65°
2026-05-06 17:20 49.74897 14.45150 13451 ft 406 kts 66°
2026-05-06 17:21 49.75716 14.49322 12572 ft 404 kts 84°
2026-05-06 17:21 49.75809 14.53628 11864 ft 398 kts 94°
2026-05-06 17:21 49.75717 14.57841 11016 ft 386 kts 95°
2026-05-06 17:21 49.75615 14.61962 9870 ft 379 kts 95°
2026-05-06 17:22 49.75515 14.65970 8939 ft 365 kts 95°
2026-05-06 17:22 49.75528 14.69802 8148 ft 349 kts 85°
2026-05-06 17:22 49.76256 14.73306 7420 ft 339 kts 63°
2026-05-06 17:22 49.77731 14.76030 6777 ft 325 kts 39°
2026-05-06 17:23 49.79691 14.77585 6229 ft 311 kts 15°
2026-05-06 17:23 49.81758 14.77777 5723 ft 296 kts 350°
2026-05-06 17:23 49.83700 14.76864 5245 ft 280 kts 337°
2026-05-06 17:23 49.85352 14.75569 4963 ft 263 kts 326°
2026-05-06 17:24 49.86763 14.73820 4714 ft 258 kts 314°
2026-05-06 17:24 49.87943 14.71717 4475 ft 258 kts 306°
2026-05-06 17:24 49.89021 14.69507 4219 ft 256 kts 306°
2026-05-06 17:24 49.90092 14.67289 3968 ft 257 kts 306°
2026-05-06 17:25 49.91155 14.65085 3729 ft 253 kts 306°
2026-05-06 17:25 49.92194 14.62927 3550 ft 244 kts 306°
2026-05-06 17:25 49.93196 14.60845 3816 ft 243 kts 306°
2026-05-06 17:25 49.94224 14.58718 3973 ft 247 kts 306°
2026-05-06 17:26 49.95259 14.56584 3988 ft 247 kts 306°
2026-05-06 17:26 49.96280 14.54488 3994 ft 240 kts 305°
2026-05-06 17:26 49.97285 14.52425 3991 ft 238 kts 305°
2026-05-06 17:26 49.98263 14.50418 3983 ft 226 kts 306°
2026-05-06 17:27 49.99181 14.48534 3984 ft 211 kts 305°
2026-05-06 17:27 50.00028 14.46794 3996 ft 192 kts 305°
2026-05-06 17:27 50.00793 14.45216 3957 ft 178 kts 306°
2026-05-06 17:27 50.01535 14.43676 3724 ft 175 kts 306°
2026-05-06 17:28 50.02251 14.42198 3470 ft 172 kts 306°
2026-05-06 17:28 50.02970 14.40717 3247 ft 170 kts 306°
2026-05-06 17:28 50.03679 14.39251 3016 ft 170 kts 307°
2026-05-06 17:28 50.04389 14.37786 2782 ft 170 kts 307°
2026-05-06 17:29 50.05097 14.36323 2562 ft 169 kts 307°
2026-05-06 17:29 50.05800 14.34871 2338 ft 166 kts 307°
2026-05-06 17:29 50.06471 14.33484 2120 ft 155 kts 307°
2026-05-06 17:29 50.07097 14.32177 1884 ft 146 kts 308°
2026-05-06 17:30 50.07695 14.30953 1693 ft 138 kts 309°
2026-05-06 17:30 50.08283 14.29788 1507 ft 136 kts 310°
2026-05-06 17:30 50.08841 14.28607 1335 ft 135 kts 307°
2026-05-06 17:30 50.09402 14.27438 1218 ft 131 kts 306°
2026-05-06 17:31 50.09848 14.26509 1211 ft 83 kts 307°
2026-05-06 17:31 50.10094 14.25996 1197 ft 46 kts 307°
2026-05-06 17:31 50.10255 14.25714 1194 ft 30 kts 332°
2026-05-06 17:31 50.10410 14.25658 1190 ft 16 kts
2026-05-06 17:32 50.10429 14.25661 1189 ft 0 kts
2026-05-06 17:33 50.10436 14.25663 1189 ft 4 kts
2026-05-06 17:33 50.10492 14.25683 1187 ft 12 kts 20°
2026-05-06 17:33 50.10557 14.25741 1175 ft 12 kts 32°
2026-05-06 17:34 50.10637 14.25827 1175 ft 16 kts 35°
2026-05-06 17:34 50.10735 14.25931 1174 ft 15 kts 34°
2026-05-06 17:34 50.10780 14.25978 1175 ft 0 kts 34°
2026-05-06 17:34 50.10782 14.25981 1175 ft 1 kts 34°
2026-05-06 17:35 50.10807 14.26007 1175 ft 11 kts 34°
2026-05-06 17:35 50.10881 14.26086 1173 ft 15 kts 34°
2026-05-06 17:35 50.10966 14.26177 1172 ft 14 kts 34°
2026-05-06 17:36 50.11082 14.26329 1169 ft 8 kts 80°
2026-05-06 17:36 50.11079 14.26402 1172 ft 6 kts 96°
2026-05-06 17:36 50.11073 14.26480 1176 ft 9 kts 97°
2026-05-06 17:36 50.11079 14.26583 1174 ft 11 kts 69°
2026-05-06 17:37 50.11115 14.26700 1175 ft 13 kts 65°
2026-05-06 17:37 50.11157 14.26841 1175 ft 16 kts 65°
2026-05-06 17:37 50.11204 14.27001 1174 ft 16 kts 65°
2026-05-06 17:37 50.11256 14.27176 1176 ft 19 kts 65°
2026-05-06 17:38 50.11314 14.27367 1175 ft 21 kts 65°
2026-05-06 17:38 50.11365 14.27539 1177 ft 16 kts 65°
2026-05-06 17:38 50.11412 14.27695 1175 ft 14 kts 64°
2026-05-06 17:38 50.11435 14.27790 1178 ft 6 kts 96°
2026-05-06 17:39 50.11401 14.27832 1175 ft 6 kts 154°
2026-05-06 17:39 50.11389 14.27841 1175 ft 1 kts 155°
2026-05-06 17:39 50.11388 14.27842 1175 ft 0 kts 155°